Location: Beccas
(43.4309°N, 0.1528°E)
Time: 11:51:40
(UTC+00:00)

Tiros 1 - Visible Passes

Search period start: 28 May 2022 00:00
Search period end: 07 June 2022 00:00
Orbit: 629 x 663 km, 48.4° (Epoch: 27 May)

Date Brightness Start Highest point End Pass type
(mag) Time Alt. Az. Time Alt. Az. Time Alt. Az.
28 May 8.1 00:06:22 36° E 00:06:22 36° E 00:09:18 10° ENE visible
28 May 7.8 01:43:58 20° W 01:46:59 54° NNW 01:51:35 10° ENE visible
28 May 8.2 03:25:11 10° WNW 03:29:42 47° N 03:34:15 10° E visible
29 May 7.0 00:30:14 78° WNW 00:30:26 81° NNW 00:35:07 10° ENE visible
29 May 8.1 02:08:31 10° WNW 02:12:59 45° N 02:17:30 10° ENE visible
29 May 8.5 23:16:21 27° E 23:16:21 27° E 23:18:37 10° ENE visible
30 May 7.7 00:53:56 26° W 00:56:19 55° NNW 01:00:55 10° ENE visible
30 May 8.2 02:34:31 10° WNW 02:39:01 46° N 02:43:33 10° E visible
30 May 7.0 23:39:47 86° NNW 23:39:47 86° NNW 23:44:27 10° ENE visible
31 May 8.1 01:17:50 10° WNW 01:22:18 45° N 01:26:48 10° ENE visible
31 May 7.8 03:00:23 10° WNW 03:04:59 58° NNE 03:09:38 10° E visible
31 May 7.9 22:25:01 34° E 22:25:01 34° E 22:27:56 10° ENE visible
01 Jun 7.6 00:02:29 19° W 00:05:38 57° NNW 00:10:14 10° ENE visible
01 Jun 8.2 01:43:51 10° WNW 01:48:19 46° N 01:52:50 10° E visible
01 Jun 7.2 03:26:10 10° WNW 03:30:50 88° NNE 03:35:33 10° ESE visible
01 Jun 8.1 21:03:46 10° S 21:07:23 23° SE 21:11:00 10° E visible
01 Jun 7.0 22:44:30 10° WSW 22:49:07 89° S 22:53:47 10° ENE visible
02 Jun 8.1 00:27:09 10° W 00:31:37 46° N 00:36:06 10° ENE visible
02 Jun 7.8 02:09:44 10° WNW 02:14:18 56° NNE 02:18:55 10° E visible
02 Jun 7.3 21:28:26 10° SW 21:32:50 46° SE 21:37:15 10° ENE visible
02 Jun 7.6 23:10:24 10° W 23:14:58 60° NNW 23:19:34 10° ENE visible
03 Jun 8.2 00:53:11 10° WNW 00:57:38 45° N 01:02:08 10° ENE visible
03 Jun 7.2 02:35:31 10° WNW 02:40:10 83° NNE 02:44:52 10° ESE visible
03 Jun 8.3 20:13:20 10° S 20:16:46 21° SE 20:20:14 10° E visible
03 Jun 7.0 21:53:51 10° WSW 21:58:28 85° SSE 22:03:07 10° ENE visible
03 Jun 8.1 23:36:28 10° W 23:40:55 47° N 23:45:25 10° ENE visible
04 Jun 7.8 01:19:04 10° WNW 01:23:37 54° NNE 01:28:13 10° E visible
04 Jun 7.2 03:01:18 10° WNW 03:05:52 57° SSW 03:10:27 10° SE visible
04 Jun 7.4 20:37:51 10° SW 20:42:12 42° SE 20:46:34 10° ENE visible
04 Jun 7.5 22:19:43 10° W 22:24:17 62° NNW 22:28:53 10° ENE visible
05 Jun 8.2 00:02:30 10° WNW 00:06:57 45° N 00:11:25 10° ENE visible
05 Jun 7.2 01:44:51 10° WNW 01:49:31 79° NNE 01:54:11 10° ESE visible
05 Jun 7.9 03:27:23 10° W 03:31:23 29° SW 03:35:24 10° SSE visible
05 Jun 7.0 21:03:12 10° WSW 21:07:49 80° SSE 21:12:27 10° ENE visible
05 Jun 8.1 22:45:46 10° W 22:50:14 47° N 22:54:44 10° ENE visible
06 Jun 7.9 00:28:24 10° WNW 00:32:56 52° NNE 00:37:29 10° E visible
06 Jun 7.0 02:10:39 10° WNW 02:15:14 61° SSW 02:19:50 10° SE visible
06 Jun 7.5 21:29:01 10° W 21:33:36 65° NNW 21:38:13 10° ENE visible
06 Jun 8.2 23:11:48 10° WNW 23:16:15 44° N 23:20:42 10° ENE visible
